Timeline UpdatesTrip UpdatesNews PostsPvt PostsTravel TipsAdmin PostsConv PostsFollowed PostsChat RequestsBlog PostsPNR Posts

Disclaimer
Search
 
 
Mon Apr 21, 2014 10:05:22 ISTHomeTrainsΣChainsAtlasPNRForumGalleryNewsFAQTripsMembersLoginFeedback
No Recent News for this Train
Other Trains in the News **new
Latest...
Departing/Terminating at Bhagat ki Kothi permanently
Tue Jan 07, 2014 (08:27AM)
⇐ Return Journey: Train# 16507

16508/Bangalore -Bhagat Ki Kothi (Jodhpur) Express

Nov 25 2013 (9:01AM)
Change Departure Station:
Change Arrival Station:
Post a Train Travel TipPost a Train Travel Tip **new
Post a Comment/Question/Picture/VideoPost a Comment/Question/Picture/Video
Pantry/Catering
✓ Pantry Car Avbl
✓ Catering Avbl
good
RSA - Rake Sharing
Rake/Coach Composition
Loco-[SLR]-[UR]-[UR]-[A1]-[A2]-[B1]-[B2]-[B3]-[S1]-[S2]-[S3]-[PC]-[S4]-[S5]-[S6]-[S7]-[S8]-[S9]-[S10]-[S11]-[S12][UR]-[SLR]
Loco
Hubli shed WDP-4
News    PNR    Forum    Time-Table    Availability    Fare Chart    Map    Arr/Dep History    Trips    Gallery    ΣChains    X/O    Timeline    
Travel Time: 11h 55m    13 halts    Distance: 630 km    Avg Speed: 52 km/hr
Type: Mail/Express
Zone: SWR/South Western
Departs @ 18:50 (Avg 8m late)
Platform# 1
  T T  
Pune Junction/PUNE 
Arrives @ 06:45 +1 night (Avg 34m late)
Platform# 6
   W F 
Ahmedabad Junction/ADI 

13 halts. 125 intermediate Stations between Pune Junction and Ahmedabad Junction

Show ALL intermediate Stations  Show Old Time-Table

#CodeStation NameX/OArrivesAvgDepartsAvgHaltPFDay#KmSpeedElevZoneAddress
1SBCBangalore City Junction (10)  -21:55+081-1028.734903mSWRBengaluru-560023, Karnataka
2YPRYesvantpur Junction (6)  22:05+322:07+32m31-1023.169919mSWRTel:080-23371444, Karnataka
3TKTumkur (3)  23:03+623:05+62m11-959.171823mSWRTumkur, Karnataka
4TTRTiptur (4)  00:05+1900:06+221m22-888.139860mSWRTiptur, Karnataka
5ASKArsikere Junction (3)X  00:45+900:50+115m--2-862.656816mSWRArsikere, Karnataka
6RRBBirur Junction (3)X  01:38+801:40+92m12-817.664802mSWRBirur, Karnataka
7DVGDavangere (2)  03:27+2503:30+253m--2-702.643598mSWRDavanagere, Karnataka
8HRRHarihar (3)  03:48+2403:50+292m--2-689.858553mSWRHarihar, Karnataka
9RNRRanibennur (3)X  04:14+3604:15+371m--2-666.567583mSWRRanebennur, Karnataka
10HVRHaveri (3)  04:44+3404:45+351m--2-633.945558mSWRHaveri, Karnataka
11UBLHubli Junction (5)  06:25+2006:35+3210m42-558.850640mSWRHubli - 580020, Karnataka
12DWRDharwad (4)  06:59+3607:00+371m12-538.851737mSWRDharwad 580001, Karnataka
13LDLonda Junction (4)  08:23+2808:25+282m22-468.344643mSWRLonda, Karnataka
14BGMBelgaum (3)  09:35+2609:40+275m12-417.050752mSWRBelgaum 590001, Karnataka
15GPBGhatprabha (2)  10:49+1110:50+101m12-359.143621mSWRGhatprabha, Karnataka
16MRJMiraj Junction (6)  12:40+612:45+195m12-279.637554mCRMiraj 416410, Maharashtra
17SLISangli (3)  12:57+2313:00+233m12-272.369559mCRSangli, Maharashtra
18KRDKarad (3)  13:59+2014:00+231m12-204.459597mCRDist- Satara., Maharashtra
19STRSatara (3)  15:00+2015:03+223m22-145.740637mCRSatara, Maharashtra
20PUNE»Pune Junction (6)»  18:40+418:50+810m120.055556mCRPune 411001, Maharashtra
21LNLLonavala (3)  19:59+620:00+81m2263.635623mCRLonavala 410401, Maharashtra
22KJTKarjat Junction (4)  20:49+1220:50+141m2292.35657mCRKarjat, Maharashtra
23KYNKalyan Junction (8)X  21:40+1221:45+105m62139.14510mCRKalyan 421301, Maharashtra
24BIRDBhiwandi Road (4)  22:09+1422:10+151m--2157.14126mCRBhiwandi, Maharashtra
25BSRVasai Road (7)  22:50+022:55-5m62184.4647mWRThane-401202, Maharashtra
26VAPIVapi (3)X  00:49+1500:50+161m--3305.56327mWRVapi, Gujarat
27BLValsad (3)X  01:15+1601:16+251m23331.74315mWRValsad, Gujarat
28NVSNavsari (3)XO  02:10+2202:11+231m13370.85214mWRNavsari, Gujarat
29STSurat (4)X  02:45+1802:55+1810m33400.47919mWRSurat 395001, Gujarat
30BHBharuch Junction (5)X  03:40+2603:41+271m33459.77419mWRBharuch, Gujarat
31BRCVadodara Junction (7)X  04:38+2404:55+2217m23530.26536mWRVadodara, Gujarat
32ANNDAnand Junction (6)XO  05:28+2905:29+291m--3566.06944mWRAnand, Gujarat
33NDNadiad Junction (4)X  05:45+3705:46+371m--3584.54637mWRNadiad, Gujarat
34ADI•Ahmedabad Junction (12)•X  06:45+3407:05+3920m63630.03351mWRAhmedabad, Gujarat
35MSHMahesana Junction (6)  09:19+2409:20+271m--3703.06595mWRMehsana, Gujarat
36SIDSiddhpur  09:53+2909:54+301m--3738.632136mWRState Highway 41, Gujarat
37PNUPalanpur Junction (5)X  10:49+1510:50+221m--3768.057216mWRPalanpur, Gujarat
38ABRAbu Road (3)X  11:45+2911:55+3010m23820.670264mNWRSirohi Dist, Rajasthan
39JWBJawai BandhX  13:06+3613:07+381m--3903.349292mNWRPali, Rajasthan
40FAFalna (2)  13:27+3313:28+341m--3919.549282mNWRFalna, Rajasthan
41MJMarwar Junction (4)  14:50+1514:55+165m13986.081267mNWRMarwar Junction, Rajasthan
42PMYPali Marwar (2)  15:18+2215:19+241m131017.075221mNWRPali, Rajasthan
43LUNILuni JunctionX  15:52+2315:55+233m--31058.245180mNWRLuni, Rajasthan
44BGKTBhagat Ki Kothi (3)16:33+17---31086.5-229mNWRJodhpur, Rajasthan
Scroll to Top
Scroll to Bottom